Tracking 31027 objects as of 19-Jul-2025
HD Live streaming from Space Station
objects crossing your sky now

ONEWEB-0353

Track ONEWEB-0353 now!
10-day predictions
ONEWEB-0353 is classified as:


NORAD ID: 49282
Int'l Code: 2021-090D
Perigee: 1,211.4 km
Apogee: 1,214.5 km
Inclination: 87.9 °
Period: 109.5 minutes
Semi major axis: 7583 km
RCS: Unknown
Launch date: October 14, 2021
Source: United Kingdom (UK)
Launch site: VOSTOCHNY COSMODROME (VOSTO)
Your satellite tracking list
ST5-A
Track 1 satellite(s)




NASA's NSSDC Master Catalog

Two Line Element Set (TLE):
1 49282U 21090D   25199.51033935  .00000222  00000-0  56532-3 0  9992
2 49282  87.9053 356.0981 0002076  95.8662 264.2705 13.14503459183746
Source of the keplerian elements: AFSPC